[[{"header":{"parameterUnit":"m.s-1","parameterCategory":1,"la1":30.2992,"la2":30.254,"lo1":-89.0895,"lo2":-89.0443,"dy":0.0025,"dx":0.0025,"nx":19,"ny":19,"refTime":"2026-04-22T09:00:00:Z","depth":0,"parameterNumber":2,"parameterNumberName":"U-component_of_WINDS"},"data":[0,0,0,-5.4854,-5.4856,-5.4963,-5.4963,-5.5126,-5.5128,0,0,0,0,0,0,0,0,0,0,0,-5.4838,-5.484,-5.4853,-5.4856,-5.4963,-5.4963,-5.5126,-5.5128,0,0,0,0,0,0,0,0,0,0,0,-5.4838,-5.484,-5.4842,-5.4857,-5.4962,-5.4963,-5.5125,-5.5036,0,0,0,0,0,0,0,0,0,0,-5.4928,-5.493,-5.4839,-5.4842,-5.4858,-5.4962,-5.4963,-5.5031,-5.5041,-5.509,0,-5.5137,0,-5.5135,-5.5141,-5.5141,0,0,0,-5.4844,-5.4921,-5.4935,-5.4842,-5.4859,-5.4962,-5.4911,-5.5036,-5.5048,-5.5104,-5.5139,-5.5144,-5.5138,-5.5142,-5.5143,-5.5462,-5.5464,0,0,-5.4838,-5.4866,-5.4927,-5.4943,-5.4929,-5.4908,-5.4915,-5.5043,-5.5083,-5.514,-5.5148,-5.5141,-5.5143,-5.5144,-5.546,-5.5463,0,0,0,-5.483,-5.4863,-5.4873,-5.4937,-5.4955,-5.4911,-5.4919,-5.5078,-5.5079,-5.5149,-5.5143,-5.5144,-5.5146,-5.5458,-5.5461,-5.559,0,0,0,-5.4826,-5.4858,-5.4871,-5.4889,-5.4953,-5.5017,-5.4952,-5.507,-5.5083,-5.5142,-5.5144,-5.5148,-5.5456,-5.546,-5.5581,-5.5645,0,0,0,-5.4826,-5.4857,-5.4878,-5.489,-5.4937,-5.5015,-5.5023,-5.5072,-5.508,-5.5141,-5.5149,-5.5454,-5.5459,-5.5574,-5.5633,-5.5737,0,0,0,-5.4834,-5.4992,-5.4881,-5.5054,-5.4937,-5.5094,-5.5021,-5.5137,-5.5205,-5.5145,-5.5456,-5.5461,-5.5571,-5.5625,-5.5729,-5.5829,-5.5873,0,0,-5.5048,-5.5018,-5.5118,-5.5022,-5.5206,-5.5075,-5.5278,-5.5314,-5.5295,-5.5408,-5.5415,-5.5584,-5.5632,-5.5735,-5.6115,-5.615,0,0,0,-5.5195,-5.5267,-5.531,-5.5376,-5.5407,-5.5439,-5.5441,-5.5454,-5.5549,-5.5358,-5.5649,-5.5677,-5.5737,-5.5783,-5.5813,-5.5862,-5.5484,-5.5483,-5.5483,-5.5538,-5.5504,-5.5667,-5.5646,-5.5712,-5.5712,-5.5762,-5.578,-5.5727,-5.5797,-5.5829,-5.6064,-5.6119,-5.6142,-5.6193,-5.588,-5.5881,-5.5881,-5.5882,-5.5847,-5.5943,-5.587,-5.6001,-5.5965,-5.6075,-5.6082,-5.6042,-5.6139,-5.6036,-5.6087,-5.5977,-5.6182,-5.6225,-5.5891,-5.5889,-5.5888,-5.5887,-5.5887,-5.6067,-5.6107,-5.6121,-5.6212,-5.6287,-5.6261,-5.6358,-5.6322,-5.6289,-5.6339,-5.6369,-5.6367,-5.6359,-5.6356,-5.6357,-5.6358,-5.6359,-5.6359,-5.636,-5.6288,-5.63,-5.6385,-5.6432,-5.647,-5.6515,-5.6518,-5.6554,-5.6584,-5.6551,-5.6551,-5.6491,-5.6208,-5.6137,-5.6372,-5.637,-5.6368,-5.6367,-5.6366,-5.6612,-5.6533,-5.6666,-5.6704,-5.6755,-5.6832,-5.6785,-5.6862,-5.6887,-5.6936,-5.6866,-5.6663,-5.663,-5.6605,-5.6546,-5.6873,-5.6873,-5.6873,-5.6873,-5.6796,-5.6776,-5.6903,-5.6966,-5.7023,-5.6995,-5.7145,-5.715,-5.7142,-5.7155,-5.7103,-5.7022,-5.6999,-5.6979,-5.6947,-5.6891,-5.7298,-5.7298,-5.7299,-5.6993,-5.6977,-5.7112,-5.7103,-5.7141,-5.7175,-5.7315,-5.739,-5.7365,-5.7315,-5.7164,-5.7147,-5.7015,-5.6975,-5.692,-5.687,-5.6767,0,0]},{"header":{"parameterUnit":"m.s-1","parameterCategory":1,"la1":30.2992,"la2":30.254,"lo1":-89.0895,"lo2":-89.0443,"dy":0.0025,"dx":0.0025,"nx":19,"ny":19,"refTime":"2026-04-22T09:00:00:Z","depth":0,"parameterNumber":3,"parameterNumberName":"V-component_of_WINDS"},"data":[0,0,0,1.23,1.23,1.2275,1.2275,1.2257,1.2257,0,0,0,0,0,0,0,0,0,0,0,1.2315,1.2315,1.23,1.23,1.2275,1.2275,1.2257,1.2257,0,0,0,0,0,0,0,0,0,0,0,1.2315,1.2315,1.2315,1.23,1.2275,1.2275,1.2257,1.2271,0,0,0,0,0,0,0,0,0,0,1.2293,1.2314,1.2315,1.2315,1.23,1.2276,1.2275,1.2272,1.227,1.2274,0,1.2279,0,1.2268,1.2257,1.2257,0,0,0,1.2295,1.2315,1.2301,1.2315,1.23,1.2276,1.2285,1.2271,1.2269,1.2272,1.2278,1.2277,1.2267,1.2257,1.2257,1.2294,1.2294,0,0,1.2296,1.2315,1.2302,1.2301,1.2305,1.2286,1.2284,1.227,1.2278,1.2278,1.2277,1.2267,1.2257,1.2257,1.2293,1.2294,0,0,0,1.2303,1.2317,1.2303,1.2302,1.2296,1.2285,1.2283,1.2278,1.2272,1.2276,1.2267,1.2257,1.2257,1.2293,1.2294,1.2335,0,0,0,1.2304,1.2321,1.2304,1.2315,1.2297,1.2287,1.2293,1.2273,1.2271,1.2267,1.2257,1.2257,1.2292,1.2293,1.2333,1.2352,0,0,0,1.2314,1.2322,1.2321,1.2316,1.2306,1.2287,1.228,1.2272,1.2266,1.2257,1.2256,1.2292,1.2293,1.2331,1.2349,1.2368,0,0,0,1.2331,1.2358,1.2322,1.2348,1.2307,1.2311,1.2279,1.2282,1.2279,1.2257,1.2293,1.2294,1.233,1.2346,1.2366,1.239,1.2401,0,0,1.2376,1.2364,1.2377,1.2344,1.2361,1.2314,1.2336,1.2315,1.2297,1.2296,1.2297,1.2333,1.2348,1.2368,1.2453,1.2462,0,0,0,1.2398,1.2409,1.2409,1.2406,1.239,1.2378,1.2352,1.2344,1.2342,1.23,1.2344,1.2352,1.2363,1.2374,1.2381,1.239,1.2299,1.2299,1.2298,1.2492,1.2465,1.2486,1.2457,1.2455,1.2426,1.2423,1.2407,1.2382,1.2392,1.2393,1.2448,1.2461,1.2466,1.2476,1.2401,1.2402,1.2402,1.2402,1.2557,1.2568,1.2531,1.2539,1.2511,1.2517,1.249,1.2472,1.2474,1.2445,1.2453,1.2427,1.2477,1.2484,1.2405,1.2404,1.2404,1.2404,1.2403,1.2618,1.2619,1.2607,1.26,1.2598,1.2566,1.2569,1.2543,1.2519,1.2526,1.2525,1.2524,1.2522,1.2527,1.2527,1.2527,1.2527,1.2528,1.2528,1.2687,1.2672,1.2678,1.2661,1.2656,1.2645,1.2615,1.2609,1.2596,1.2577,1.2577,1.2552,1.2486,1.2471,1.2531,1.253,1.253,1.2529,1.2529,1.2768,1.2745,1.2754,1.2749,1.2726,1.2726,1.2691,1.2681,1.2672,1.2674,1.2646,1.26,1.2587,1.2581,1.2569,1.265,1.265,1.265,1.265,1.2822,1.2811,1.2814,1.2807,1.2796,1.2765,1.2777,1.2753,1.2724,1.2717,1.2701,1.2681,1.2676,1.2666,1.2658,1.2647,1.2746,1.2746,1.2746,1.2871,1.2858,1.2874,1.2844,1.2824,1.2808,1.2818,1.2812,1.2774,1.2749,1.2711,1.2707,1.2676,1.2667,1.2645,1.2633,1.2611,0,0]}]]